{"data":{"norad_id":49766,"epoch":"2026-09-20T04:33:26.549568Z","epoch_age_seconds":72106,"freshness":"FRESH","line1":"1 49766U 21115AU  26263.18989062  .00000223  00000+0  17313-4 0  9999","line2":"2 49766  53.1581 331.1714 0001328  81.9380 278.1773 15.35397298265246","mean_motion":15.35397298,"eccentricity":0.0001328,"inclination_deg":53.1581,"raan_deg":331.1714,"arg_perigee_deg":81.938,"mean_anomaly_deg":278.1773,"bstar":1.7313e-5,"rev_number":26524,"period_min":93.786800450654,"perigee_km":458.83259479676,"apogee_km":460.64873510457,"semimajor_km":6837.8776649507,"source":"CELESTRAK","updated_at":"2026-09-20T09:00:39.411743Z"}}